Regional Weather Roundup
Issued by NWS State College, PA

Home | Current Version | Previous Version | Graphics & Text | Print | Product List | Glossary Off
Versions: 1 2 3 4 5 6 7 8 9 10 11 12 13 14 15 16 17 18 19 20 21 22 23 24 25 26 27 28 29 30 31 32 33 34 35 36 37 38 39 40 41 42 43 44 45 46 47 48 49 50

000
ASUS41 KCTP 280710
RWRCTP

REGIONAL WEATHER ROUNDUP
NATIONAL WEATHER SERVICE STATE COLLEGE PA
300 AM EDT TUE APR 28 2015

Note: "fair" indicates few or no clouds below 12,000 feet with no
significant weather and/or obstructions to visibility.

* = STATION THAT DOES NOT REPORT PRECIPITATION /E.G. RAIN...SNOW...ETC/
    THUNDER OR FOG.

PAZ002>004-007>009-013>016-020>023-029>032-280800-
WESTERN PENNSYLVANIA

CITY           SKY/WX    TMP DP  RH WIND       PRES   REMARKS
ERIE           CLEAR     38  33  82 CALM      30.03F
MEADVILLE      MOCLDY    41  35  79 N3        30.01S
FRANKLIN*      CLOUDY    39  34  81 NW3       30.01S
NEW CASTLE     CLOUDY    41  37  85 CALM      30.04S
BEAVER COUNTY  NOT AVBL
BUTLER*        CLOUDY    41  36  81 NW5       30.02F
PITTSBURGH INT CLOUDY    42  36  79 NW8       30.02F
PITTSBURGH     CLOUDY    40  34  79 NW7       30.00F
INDIANA*       CLOUDY    41  37  87 NW3       30.02F
LATROBE        CLOUDY    41  39  93 CALM      30.02F
WASHINGTON CO* CLOUDY    39  34  81 CALM      30.04S
$$

PAZ004>006-010>012-017>019-024>028-033>037-041-042-045-046-049>053-280800-
CENTRAL PENNSYLVANIA

CITY           SKY/WX    TMP DP  RH WIND       PRES   REMARKS
BRADFORD       PTCLDY    37  34  89 NW10      29.94F
DUBOIS         CLOUDY    42  36  79 NW8       29.95S
CLEARFIELD     MOCLDY    42  35  76 W8        29.94F
JOHNSTOWN      CLOUDY    38  35  89 NW10      29.94F
ALTOONA        CLOUDY    42  35  76 NE3       29.95S
STATE COLLEGE  CLOUDY    44  36  73 NW7       29.92R
WILLIAMSPORT   CLOUDY    49  37  63 W9        29.87F
SELINSGROVE    CLOUDY    48  37  65 W3        29.88S
FT INDIANTOWN  MOCLDY    49  37  62 VRB2      29.85R
CAPITAL CITY   CLOUDY    49  36  61 W6        29.88S
HARRISBURG     CLOUDY    50  37  61 NW10      29.87S
YORK           CLOUDY    47  36  65 NW9       29.88R
$$

PAZ038>040-043-044-047-048-054-055-060>062-067>071-280800-
EASTERN PENNSYLVANIA

CITY           SKY/WX    TMP DP  RH WIND       PRES   REMARKS
SCRANTON       CLOUDY    46  40  79 NW6       29.82S
MOUNT POCONO   CLOUDY    42  38  85 N15G25    29.77S
ALLENTOWN      CLOUDY    50  39  66 NW7       29.79S
QUAKERTOWN*    MOSUNNY   48  39  71 NW10G16   29.80R
READING        CLOUDY    49  38  65 W8        29.82F
LANCASTER      CLOUDY    48  38  68 NW9       29.84F
COATESVILLE    LGT RAIN  46  39  76 NW14G20   29.82F
POTTSTOWN      MOCLDY    47  38  71 NW9       29.81F
BLUE BELL      CLOUDY    50  39  66 W3        29.78F
DOYLESTOWN     MOCLDY    46  38  73 NW5       29.77F
WILLOW GROVE   NOT AVBL
NORTH PHILA    MOCLDY    51  36  56 NW9       29.79F
PHILADELPHIA   CLOUDY    52  37  56 NW12G22   29.80S
$$



USA.gov is the U.S. government's official web portal to all federal, state and local government web resources and services.